Regional Weather Roundup
Issued by NWS

Home | Current Version | Previous Version | Graphics & Text | Print | Product List | Glossary On
Versions: 1 2 3 4 5 6 7 8 9 10 11 12 13 14 15 16 17 18 19 20 21 22 23 24 25 26 27 28 29 30 31 32 33 34 35 36 37 38 39 40 41 42 43 44 45 46 47 48 49
000
ASUS45 KPSR 220210
RWRAZ

ARIZONA REGIONAL HOURLY WEATHER ROUNDUP
NATIONAL WEATHER SERVICE TUCSON AZ
700 PM MST WED JUN 21 2017

NOTE: FAIR INDICATES FEW OR NO CLOUDS BELOW 12,000 FEET WITH NO
SIGNIFICANT WEATHER AND/OR OBSTRUCTIONS TO VISIBILITY.

AZZ001>003-036-220300-
NORTHWEST ARIZONA

CITY           SKY/WX    TMP DP  RH WIND       PRES   REMARKS
BULLHEAD CITY  CLEAR    117  28   5 SW12      29.53S HX 107
KINGMAN        CLEAR    104  31   8 SW16      29.82R
$$

AZZ004>008-015-016-018-220300-
NORTH CENTRAL ARIZONA

CITY           SKY/WX    TMP DP  RH WIND       PRES   REMARKS
GRAND CANYON   PTCLDY    89  25  10 W9        30.11R
PRESCOTT       CLEAR     96  23   7 W12       29.97S
FLAGSTAFF      PTCLDY    85  25  11 W8        30.15R
PAYSON         PTCLDY    99  28   8 SW14      30.00R
PAGE           CLEAR    103  26   6 W13G18    29.82R
$$

AZZ009>014-017-220300-
NORTHEAST ARIZONA

CITY           SKY/WX    TMP DP  RH WIND       PRES   REMARKS
WINSLOW        PTCLDY    99  27   8 SW15G38   29.93R
SAINT JOHNS    CLOUDY    92  30  11 W14       30.01R
WINDOW ROCK    PTCLDY    86  34  15 CALM      30.09F
SHOW LOW       PTCLDY    84  32  15 S13G24    30.09S
$$

AZZ023-220300-
GREATER PHOENIX AREA

CITY           SKY/WX    TMP DP  RH WIND       PRES   REMARKS
PHOENIX        PTCLDY   115  35   6 W16       29.55S HX 107
BUCKEYE        CLEAR    109  39   9 SW12      29.57S HX 103
GLENDALE       PTCLDY   115  32   6 S14G21    29.57S HX 106
LUKE AFB       CLEAR    113  36   7 SW16      29.55R HX 106
DEER VALLEY    CLEAR    111  35   7 SW13      29.58S HX 104
SCOTTSDALE     CLEAR    112  34   7 W9        29.61R HX 104
MESA-FALCON    PTCLDY   113  41   9 SW13      29.59S HX 107
MESA-GATEWAY   PTCLDY   111  39   8 W13       29.60S HX 105
CHANDLER       CLEAR    111  37   8 SW12      29.58R HX 104
$$

AZZ027-028-220300-
SOUTHWEST MARICOPA COUNTY AND PINAL COUNTY

CITY           SKY/WX    TMP DP  RH WIND       PRES   REMARKS
CASA GRANDE      N/A    N/A N/A N/A MISG        N/A
$$

AZZ503-504-507>509-220300-
SOUTHEAST ARIZONA

CITY           SKY/WX    TMP DP  RH WIND       PRES   REMARKS
TUCSON         MOCLDY   104  41  11 SE10      29.78F
DAVIS-MONTHAN  CLEAR    102  42  12 SE13      29.76F
RYAN FIELD     CLEAR    106  41  11 E23G29    29.73R HX 100
NOGALES        CLOUDY    94  39  14 NE7       29.89R
SIERRA VISTA   MOCLDY    90  39  16 SW6       29.99R
DOUGLAS        MOCLDY    93  42  17 SE9       29.96R
SAFFORD        MOCLDY   100  43  14 S14       29.77R
$$

AZZ020-021-025-026-031-220300-
SOUTHWEST ARIZONA

CITY           SKY/WX    TMP DP  RH WIND       PRES   REMARKS
YUMA           CLEAR    106  60  22 S14       29.55R HX 107
$$

CAZ031-033-041-043-047-048-061-220300-
SOUTHERN CALIFORNIA

CITY           SKY/WX    TMP DP  RH WIND       PRES   REMARKS
DOWNTOWN L.A.  SUNNY     77  59  53 W6        29.69R
L.A. AIRPORT   SUNNY     68  60  75 W12       29.70S
SAN DIEGO      MOSUNNY   68  61  78 SW7       29.74R
BURBANK        SUNNY     86  55  34 E12       29.69S
ONTARIO        SUNNY     91  59  33 W16       29.69R
RIVERSIDE      SUNNY     93  52  24 W15       29.69R
PALM SPRINGS   SUNNY    112  35   7 NW17G29   29.56R HX 105
EL CENTRO NAS  CLEAR    109  54  16 SE7       29.53R HX 107
IMPERIAL       CLOUDY   111  62  20 SE14      29.51R HX 114
BLYTHE         MOCLDY   117  21   3 SW14      29.53R HX 106
NEEDLES        MOCLDY   117  18   3 SW13      29.56S HX 106
$$

NVZ020-UTZ003-220300-
SOUTHERN NEVADA-UTAH

CITY           SKY/WX    TMP DP  RH WIND       PRES   REMARKS
LAS VEGAS      SUNNY    109  17   4 SW16G23   29.66S HX 100
SALT LAKE CITY PTCLDY    93  50  23 N9        29.86S
$$

NMZ009-TXZ055-220300-
NEW MEXICO-WEST TEXAS

CITY           SKY/WX    TMP DP  RH WIND       PRES   REMARKS
ALBUQUERQUE    PTCLDY    97  27   8 CALM      29.91F
EL PASO        TSTM      95  50  21 E16G28    29.84R
$$


........................KEY........................
SKY/WX - SKY CONDITION/WEATHER
TMP    - TEMPERATURE IN FAHRENHEIT
DP     - DEWPOINT IN FAHRENHEIT
RH     - RELATIVE HUMIDITY IN PERCENT
WIND   - DIRECTION AND SPEED IN MILES PER HOUR (MPH)
VRB    - VARIABLE WIND DIRECTION
PRES   - MEAN SEA LEVEL PRESSURE IN INCHES OF MERCURY
         F - FALLING PRESSURE   R - RISING PRESSURE
         S - STEADY PRESSURE
VSB    - VISIBILITY IN MILES
HX     - HEAT INDEX IN FAHRENHEIT
WCI    - WIND CHILL INDEX IN FAHRENHEIT
TC     - TEMPERATURE IN CELSIUS WHICH IS ALSO KNOWN AS
         TEMPERATURE IN CENTIGRADE
AFB    - AIR FORCE BASE
         LUKE AFB IS LUKE AIR FORCE BASE
         DAVIS-MONTHAN IS DAVIS-MONTHAN AIR FORCE BASE
NAS    - NAVAL AIR STATION
         EL CENTRO NAS IS EL CENTRO NAVAL AIR STATION
N/A    - NOT AVAILABLE





USA.gov is the U.S. government's official web portal to all federal, state and local government web resources and services.